London City, United Kingdom

11:56 PM GMT on November 21, 2017 (GMT +0000)
London City

Weather History for EGLC - September, 2013

Change the Weather History Date:

Friday, September 6, 2013

  Actual Average Record
Temperature  
Mean Temperature 62 °F -  
Max Temperature 68 °F 67 °F 78 °F (2006)
Min Temperature 57 °F 56 °F 46 °F (2015)
Degree Days  
Heating Degree Days 2    
Growing Degree Days 12 (Base 50)    
Moisture  
Dew Point 54 °F    
Average Humidity 75    
Maximum Humidity 88    
Minimum Humidity 59    
Precipitation  
Precipitation 0.00 in - - ()
Sea Level Pressure  
Sea Level Pressure 29.78 in    
Wind  
Wind Speed 7 mph ()    
Max Wind Speed 13 mph    
Max Gust Speed -    
Visibility 6.1 miles    
Events Rain    
Averages and records for this station are not official NWS values.
T = Trace of Precipitation, MM = Missing Value Source: Averaged Metar Reports

Daily Weather History Graph

Daily Weather History Graph

Search for Another Location

Airport or City:

Trip Planner

Search our weather history database for the weather conditions in past years. The results will help you decide how hot, cold, wet, or windy it might be!

Date:

Astronomy

Sep. 06, 2013 Rise Set
Actual Time 6:20 AM BST 7:34 PM BST
Civil Twilight 5:46 AM BST 8:08 PM BST
Nautical Twilight 5:04 AM BST 8:50 PM BST
Astronomical Twilight 4:18 AM BST 9:35 PM BST
Moon 7:30 AM BST (9/6) 7:34 PM BST (9/6)
Length of Visible Light 14h 22m
Length of Day
13h 14m
New Moon, 1% of the Moon is Illuminated
Sep 6
New Moon
Sep 12
First Quarter
Sep 19
Full
Sep 27
Last Quarter
Oct 5
New

Hourly Weather History & Observations

Time (BST) Temp. Dew Point Humidity Pressure Visibility Wind Dir Wind Speed Gust Speed Precip Events Conditions
12:20 AM 68.0 °F 53.6 °F 60% 29.77 in 6.2 mi NW 8.1 mph - N/A   Unknown
12:50 AM 66.2 °F 53.6 °F 64% 29.77 in 6.2 mi NW 8.1 mph - N/A   Unknown
1:20 AM 66.2 °F 53.6 °F 64% 29.77 in 6.2 mi WNW 8.1 mph - N/A   Unknown
1:50 AM 64.4 °F 53.6 °F 68% 29.77 in 6.2 mi WNW 8.1 mph - N/A   Unknown
2:20 AM 64.4 °F 53.6 °F 68% 29.77 in 6.2 mi NW 8.1 mph - N/A   Unknown
2:50 AM 64.4 °F 53.6 °F 68% 29.77 in 6.2 mi NW 6.9 mph - N/A   Unknown
3:20 AM 64.4 °F 53.6 °F 68% 29.77 in 6.2 mi NW 6.9 mph - N/A   Light Drizzle
3:50 AM 62.6 °F 53.6 °F 72% 29.77 in 6.2 mi WNW 9.2 mph - N/A   Unknown
4:20 AM 62.6 °F 53.6 °F 72% 29.74 in 6.2 mi NNW 4.6 mph - N/A   Unknown
4:50 AM 62.6 °F 55.4 °F 77% 29.71 in 6.2 mi NNW 5.8 mph - N/A Rain Rain
5:20 AM 60.8 °F 53.6 °F 77% 29.74 in 6.2 mi Variable 2.3 mph - N/A Rain Light Rain Showers
5:50 AM 60.8 °F 55.4 °F 82% 29.74 in - Variable 3.5 mph - N/A   Clear
6:20 AM 60.8 °F 55.4 °F 82% 29.77 in - Variable 2.3 mph - N/A   Clear
6:50 AM 60.8 °F 55.4 °F 82% 29.77 in - Calm Calm - N/A   Clear
7:20 AM 60.8 °F 55.4 °F 82% 29.77 in - NE 2.3 mph - N/A   Clear
7:50 AM 60.8 °F 55.4 °F 82% 29.74 in - ENE 4.6 mph - N/A   Clear
8:20 AM 60.8 °F 55.4 °F 82% 29.74 in - ESE 5.8 mph - N/A   Clear
8:50 AM 60.8 °F 57.2 °F 88% 29.77 in - South 5.8 mph - N/A   Clear
9:20 AM 60.8 °F 55.4 °F 82% 29.77 in 5.0 mi SW 4.6 mph - N/A Rain Light Rain
9:50 AM 60.8 °F 57.2 °F 88% 29.77 in 6.2 mi SW 8.1 mph - N/A Rain Light Rain
10:20 AM 60.8 °F 57.2 °F 88% 29.77 in 6.2 mi SSW 5.8 mph - N/A Rain Light Rain
10:50 AM 60.8 °F 57.2 °F 88% 29.74 in 5.6 mi Variable 3.5 mph - N/A Rain Light Rain
11:20 AM 62.6 °F 57.2 °F 82% 29.77 in 6.2 mi SSW 6.9 mph - N/A   Mostly Cloudy
11:50 AM 62.6 °F 59.0 °F 88% 29.77 in 5.6 mi SSW 5.8 mph - N/A Rain Light Rain
12:20 PM 62.6 °F 59.0 °F 88% 29.77 in 5.6 mi SW 6.9 mph - N/A Rain Light Rain
12:50 PM 62.6 °F 57.2 °F 82% 29.77 in 6.2 mi SSW 10.4 mph - N/A Rain Light Rain
1:20 PM 62.6 °F 55.4 °F 77% 29.74 in 6.2 mi SSW 9.2 mph - N/A Rain Light Rain
1:50 PM 60.8 °F 55.4 °F 82% 29.74 in 6.2 mi South 8.1 mph - N/A Rain Light Rain
2:20 PM 60.8 °F 55.4 °F 82% 29.77 in 6.2 mi South 8.1 mph - N/A   Scattered Clouds
2:50 PM 60.8 °F 55.4 °F 82% 29.77 in 6.2 mi South 6.9 mph - N/A   Mostly Cloudy
3:20 PM 62.6 °F 55.4 °F 77% 29.77 in 6.2 mi South 8.1 mph - N/A   Mostly Cloudy
3:50 PM 62.6 °F 55.4 °F 77% 29.77 in 6.2 mi WSW 11.5 mph - N/A   Mostly Cloudy
4:20 PM 62.6 °F 55.4 °F 77% 29.77 in 6.2 mi West 12.7 mph - N/A   Scattered Clouds
4:50 PM 64.4 °F 53.6 °F 68% 29.77 in 6.2 mi WSW 12.7 mph - N/A   Scattered Clouds
5:20 PM 64.4 °F 51.8 °F 64% 29.77 in 6.2 mi WSW 12.7 mph - N/A   Scattered Clouds
5:50 PM 62.6 °F 50.0 °F 63% 29.77 in 6.2 mi WSW 11.5 mph - N/A   Partly Cloudy
6:20 PM 64.4 °F 51.8 °F 64% 29.80 in 6.2 mi SW 8.1 mph - N/A   Partly Cloudy
6:50 PM 62.6 °F 50.0 °F 63% 29.80 in 6.2 mi SW 8.1 mph - N/A   Partly Cloudy
7:20 PM 62.6 °F 48.2 °F 59% 29.80 in 6.2 mi SW 6.9 mph - N/A   Partly Cloudy
7:50 PM 62.6 °F 50.0 °F 63% 29.80 in 6.2 mi South 5.8 mph - N/A   Partly Cloudy
8:20 PM 60.8 °F 51.8 °F 72% 29.83 in 6.2 mi SSW 10.4 mph - N/A   Partly Cloudy
8:50 PM 60.8 °F 51.8 °F 72% 29.83 in 6.2 mi SSW 9.2 mph - N/A   Partly Cloudy
9:20 PM 59.0 °F 50.0 °F 72% 29.83 in 6.2 mi SSW 8.1 mph - N/A   Unknown
9:50 PM 59.0 °F 50.0 °F 72% 29.83 in 6.2 mi SSW 8.1 mph - N/A   Unknown
10:20 PM 57.2 °F 50.0 °F 77% 29.83 in 6.2 mi South 8.1 mph - N/A   Unknown
10:50 PM 57.2 °F 50.0 °F 77% 29.83 in 6.2 mi South 8.1 mph - N/A   Unknown
11:20 PM 57.2 °F 50.0 °F 77% 29.86 in 6.2 mi South 8.1 mph - N/A   Unknown
11:50 PM 57.2 °F 48.2 °F 72% 29.86 in 6.2 mi South 5.8 mph - N/A   Unknown